Location: Helion Bumpstead
(52.0500°N, 0.4000°E)
Time: 21:44:56
(UTC+00:00)

Cosmos 1725 Rocket - Pass Details

Date: 15 February 2026
Orbit: 962 x 989 km, 82.9° (Epoch: 11 March)

Event Time Altitude Azimuth Distance (km) Brightness Sun altitude
Rises 05:52:18 0° 168° (SSE) 3,634 7.2 -13.0°
Reaches altitude 10° 05:54:52 10° 163° (SSE) 2,692 6.6 -12.7°
Maximum altitude 06:00:43 48° 91° (E) 1,240 5.1 -11.8°
Drops below altitude 10° 06:06:38 10° 19° (NNE) 2,717 6.5 -10.8°
Sets 06:09:14 0° 14° (NNE) 3,671 7.1 -10.5°
